Location: ?????
(31.8092°N, 35.2590°E)
Time: 18:59:50
(UTC+00:00)

Cosmos 1626 - Pass Details

Date: 20 June 2021
Orbit: 489 x 493 km, 82.5° (Epoch: 31 July)

Event Time Altitude Azimuth Distance (km) Brightness Sun altitude
Exits shadow 18:20:32 34° 100° (E) 823 2.8 -16.9°
Maximum altitude 18:20:44 34° 92° (E) 818 2.8 -17.0°
Drops below altitude 10° 18:24:06 10° 26° (NNE) 1,688 5.0 -17.5°
Sets 18:26:20 0° 17° (NNE) 2,574 6.1 -17.8°
